User: anonymous   Login
Location: Cz?stochówka
(50.8142°N, 19.0915°E)
Time: 14:07:57
(UTC+00:00)
Language:

Cosmos 1833 Rocket - Orbit

View from above orbital plane
View from above orbital plane
View from above satellite
View from above satellite

Ground track
Ground track

The orbit is defined by the following mean orbital elements,

1 17590U          26074.26845888 +.00000000 +00000-0 +33621-4 0 00002
2 17590  70.9992 264.7380 0003173 130.0198 230.1204 14.17166638    01
Epoch (UTC): 15 March 2026 06:26:34
Eccentricity: 0.0003173
inclination: 70.9992°
perigee height: 833 km
apogee height: 837 km
right ascension of ascending node: 264.7380°
argument of perigee: 130.0198°
revolutions per day: 14.17166638
mean anomaly at epoch: 230.1204°

The dashed part of the orbit path shows where the satellite is in the earth's shadow,  

DLR